Location: Brantley
(31.5822°N, 86.2569°W)
Time: 20:36:54
(UTC+00:00)

Transit 2A Rocket - Pass Details

Date: 18 February 2026
Orbit: 583 x 900 km, 66.7° (Epoch: 8 March)

Event Time Altitude Azimuth Distance (km) Brightness Sun altitude
Rises 20:13:41 0° 180° (S) 3,409 8.9 36.2°
Reaches altitude 10° 20:16:19 10° 171° (S) 2,509 8.3 35.9°
Maximum altitude 20:21:33 34° 108° (ESE) 1,420 6.5 35.1°
Drops below altitude 10° 20:26:55 10° 45° (NE) 2,576 7.3 34.3°
Sets 20:29:38 0° 37° (NE) 3,512 7.9 33.9°
